WA6MEM Weather Reports


time (UTC)temp
F
wind
direction
speed
knots
gust
knots
rain 1hr
in
rain 24hr
in
rain mn
in
humidity
%
barometer
mb
20260506200014 62 155 2.6 0.0 0.00 0.00 0.01 69 1016.5
20260506195513 62 173 3.5 0.0 0.00 0.00 0.01 66 1016.6
20260506195013 62 169 3.5 0.0 0.00 0.00 0.01 72 1016.6
20260506194513 62 360 4.3 0.0 0.00 0.00 0.01 71 1016.6
20260506194017 62 200 3.5 0.0 0.00 0.00 0.01 69 1016.5
20260506193512 62 171 3.5 0.0 0.00 0.00 0.01 71 1016.5
20260506193014 62 219 3.5 0.0 0.00 0.00 0.01 74 1016.5
20260506192511 62 360 3.5 0.0 0.00 0.00 0.01 74 1016.8
20260506192011 62 148 3.5 0.0 0.00 0.00 0.01 75 1016.8
20260506191511 62 152 3.5 0.0 0.00 0.00 0.01 74 1016.8
20260506191011 62 185 3.5 0.0 0.00 0.00 0.01 71 1016.9
20260506190518 61 155 3.5 0.0 0.00 0.00 0.01 71 1016.9
20260506190013 62 360 3.5 0.0 0.00 0.00 0.01 73 1016.9
20260506185508 62 244 2.6 0.0 0.00 0.00 0.01 75 1017.0
20260506185008 61 360 3.5 0.0 0.00 0.00 0.01 74 1017.0
20260506184510 62 131 2.6 0.0 0.00 0.00 0.01 75 1017.0
20260506184013 62 162 2.6 0.0 0.00 0.00 0.01 75 1017.1
20260506183507 61 360 3.5 0.0 0.00 0.00 0.01 76 1017.1
20260506183013 61 360 2.6 0.0 0.00 0.00 0.01 77 1017.1
20260506182506 61 204 2.6 0.0 0.00 0.00 0.01 78 1017.1
20260506182010 61 172 3.5 0.0 0.00 0.00 0.01 77 1017.1
20260506181512 61 162 3.5 0.0 0.00 0.00 0.01 78 1017.1
20260506181010 61 174 3.5 0.0 0.00 0.00 0.01 78 1017.2
20260506180505 61 172 2.6 0.0 0.00 0.00 0.01 79 1017.2
20260506180005 61 65 2.6 0.0 0.00 0.00 0.01 80 1017.2
20260506175504 61 360 2.6 0.0 0.00 0.00 0.01 80 1017.1
20260506175002 61 190 2.6 0.0 0.00 0.00 0.01 80 1017.1
20260506174502 61 190 2.6 0.0 0.00 0.00 0.01 80 1017.1
20260506174002 60 107 2.6 0.0 0.00 0.00 0.01 81 1017.1
20260506173503 60 169 2.6 0.0 0.00 0.00 0.01 82 1017.1
20260506173002 60 171 2.6 0.0 0.00 0.00 0.01 82 1017.1
20260506172502 60 186 2.6 0.0 0.00 0.00 0.01 81 1017.1
20260506172003 60 144 2.6 0.0 0.00 0.00 0.01 81 1017.1
20260506171605 60 197 2.6 0.0 0.00 0.00 0.01 81 1017.1
20260506171103 60 132 1.7 0.0 0.00 0.00 0.01 81 1016.9
20260506170601 60 163 1.7 0.0 0.00 0.00 0.01 82 1016.9
20260506170058 60 175 2.6 0.0 0.00 0.00 0.01 82 1016.9
20260506165600 60 221 1.7 0.0 0.00 0.00 0.01 83 1016.9
20260506165057 60 212 1.7 0.0 0.00 0.00 0.01 83 1016.9
20260506164607 59 175 1.7 0.0 0.00 0.00 0.01 84 1016.9
20260506164058 59 166 1.7 0.0 0.00 0.00 0.01 84 1016.8
20260506163555 59 189 2.6 0.0 0.00 0.00 0.01 85 1016.8
20260506163055 59 209 1.7 0.0 0.00 0.00 0.01 85 1016.8
20260506162554 59 175 1.7 0.0 0.00 0.00 0.01 86 1016.8
20260506162056 58 209 1.7 0.0 0.00 0.00 0.01 87 1016.8
20260506161551 58 188 2.6 0.0 0.00 0.00 0.01 87 1016.8
20260506161053 58 121 2.6 0.0 0.00 0.00 0.01 87 1016.9
20260506160549 57 203 2.6 0.0 0.00 0.00 0.01 88 1016.9
20260506160053 57 142 2.6 0.0 0.00 0.00 0.01 89 1016.9
20260506155549 57 161 2.6 0.0 0.00 0.00 0.01 90 1016.8
20260506155045 56 184 1.7 0.0 0.00 0.00 0.01 91 1016.8
20260506154543 56 195 1.7 0.0 0.00 0.00 0.01 92 1016.8
20260506154044 56 171 1.7 0.0 0.00 0.00 0.01 91 1016.9
20260506153542 55 207 1.7 0.0 0.00 0.00 0.01 91 1016.9
20260506153104 55 138 1.7 0.0 0.00 0.00 0.01 91 1016.9
20260506152540 55 170 0.9 0.0 0.00 0.00 0.01 91 1017.0
20260506152040 55 190 0.9 0.0 0.00 0.00 0.01 91 1017.0
20260506151543 55 192 0.9 0.0 0.00 0.00 0.01 92 1017.0
20260506151042 54 173 0.9 0.0 0.00 0.00 0.01 93 1016.9
20260506150537 54 173 0.9 0.0 0.00 0.00 0.01 93 1016.9
20260506150042 54 219 0.9 0.0 0.00 0.00 0.01 94 1016.9
20260506145535 53 163 0.9 0.0 0.00 0.00 0.01 94 1017.0
20260506145034 53 135 0.9 0.0 0.00 0.00 0.01 94 1017.0
20260506144533 53 139 0.9 0.0 0.00 0.00 0.01 94 1017.0
20260506144033 53 103 0.9 0.0 0.00 0.00 0.01 94 1017.0
20260506143533 53 175 0.0 0.0 0.00 0.00 0.01 95 1017.0
20260506143033 53 109 0.0 0.0 0.00 0.00 0.01 95 1017.0
20260506142532 53 65 0.0 0.0 0.00 0.00 0.01 95 1017.0
20260506142032 52 65 0.0 0.0 0.00 0.00 0.01 95 1017.0
20260506141531 52 65 0.0 0.0 0.00 0.00 0.01 95 1017.0
20260506141031 52 65 0.0 0.0 0.00 0.00 0.01 95 1016.9
20260506140530 52 355 0.0 0.0 0.00 0.00 0.01 95 1016.9
20260506140030 52 355 0.0 0.0 0.00 0.00 0.01 95 1016.9
20260506135528 52 355 0.0 0.0 0.00 0.00 0.01 95 1016.7
20260506135028 51 355 0.0 0.0 0.00 0.00 0.01 95 1016.7
20260506134531 51 355 0.0 0.0 0.00 0.00 0.01 95 1016.7
20260506134028 51 355 0.0 0.0 0.00 0.00 0.01 95 1016.7
20260506133528 51 355 0.0 0.0 0.00 0.00 0.01 95 1016.7
20260506133028 50 355 0.0 0.0 0.00 0.00 0.01 95 1016.7
20260506132531 50 355 0.0 0.0 0.00 0.00 0.01 95 1016.5
20260506132027 50 355 0.0 0.0 0.00 0.00 0.01 95 1016.5
20260506131534 50 5 0.0 0.0 0.00 0.00 0.01 95 1016.5
20260506131027 50 5 0.0 0.0 0.00 0.00 0.01 95 1016.3
20260506130527 50 5 0.0 0.0 0.00 0.00 0.01 95 1016.3
20260506130027 50 5 0.0 0.0 0.00 0.00 0.01 95 1016.3
20260506125525 50 5 0.0 0.0 0.00 0.00 0.01 95 1016.0
20260506125028 50 5 0.0 0.0 0.00 0.00 0.00 95 1016.0
20260506124525 50 5 0.0 0.0 0.00 0.00 0.00 95 1016.0
20260506124025 50 5 0.0 0.0 0.00 0.00 0.00 95 1015.9
20260506123526 50 5 0.0 0.0 0.00 0.00 0.00 95 1015.9
20260506123024 50 5 0.0 0.0 0.00 0.00 0.00 95 1015.9
20260506122525 50 5 0.0 0.0 0.00 0.00 0.00 95 1015.8
20260506122026 50 5 0.0 0.0 0.00 0.00 0.00 95 1015.8
20260506121524 50 5 0.0 0.0 0.00 0.00 0.00 94 1015.8
20260506121024 50 5 0.0 0.0 0.00 0.00 0.00 94 1015.9
20260506120527 50 5 0.0 0.0 0.00 0.00 0.00 94 1015.9
20260506120024 50 5 0.0 0.0 0.00 0.00 0.00 95 1015.9
20260506115526 50 5 0.0 0.0 0.00 0.00 0.00 95 1015.8
20260506115023 50 5 0.0 0.0 0.00 0.00 0.00 94 1015.8
20260506114528 50 5 0.0 0.0 0.00 0.00 0.00 94 1015.8
20260506114023 50 5 0.0 0.0 0.00 0.00 0.00 94 1015.8
20260506113523 50 5 0.0 0.0 0.00 0.00 0.00 94 1015.8
20260506113035 50 5 0.0 0.0 0.00 0.00 0.00 94 1015.8
20260506112522 50 5 0.0 0.0 0.00 0.00 0.00 94 1015.8
20260506112022 50 5 0.0 0.0 0.00 0.00 0.00 94 1015.8
20260506111522 50 5 0.0 0.0 0.00 0.00 0.00 94 1015.8
20260506111023 50 5 0.0 0.0 0.00 0.00 0.00 95 1015.7
20260506110523 50 5 0.0 0.0 0.00 0.00 0.00 94 1015.7
20260506110022 50 5 0.0 0.0 0.00 0.00 0.00 94 1015.7
20260506105521 50 5 0.0 0.0 0.00 0.00 0.00 94 1015.7
20260506105022 50 5 0.0 0.0 0.00 0.00 0.00 94 1015.7
20260506104524 50 5 0.0 0.0 0.00 0.00 0.00 94 1015.7
20260506104020 50 5 0.0 0.0 0.00 0.00 0.00 94 1015.7
20260506103521 50 5 0.0 0.0 0.00 0.00 0.00 94 1015.7
20260506103025 51 5 0.0 0.0 0.00 0.00 0.00 94 1015.7
20260506102520 50 5 0.0 0.0 0.00 0.00 0.00 94 1015.7
20260506102020 50 5 0.0 0.0 0.00 0.00 0.00 94 1015.7
20260506101520 50 5 0.0 0.0 0.00 0.00 0.00 94 1015.7
20260506101019 50 5 0.0 0.0 0.00 0.00 0.00 94 1015.6
20260506100519 50 5 0.0 0.0 0.00 0.00 0.00 94 1015.6
20260506100019 50 5 0.0 0.0 0.00 0.00 0.00 94 1015.6
20260506095518 50 5 0.0 0.0 0.00 0.00 0.00 94 1015.7
20260506095018 50 5 0.0 0.0 0.00 0.00 0.00 94 1015.7
20260506094517 49 5 0.0 0.0 0.00 0.00 0.00 94 1015.7
20260506094016 50 5 0.0 0.0 0.00 0.00 0.00 94 1015.7
20260506093516 50 5 0.0 0.0 0.00 0.00 0.00 94 1015.7
20260506093015 50 257 0.0 0.0 0.00 0.00 0.00 94 1015.7
20260506092515 50 257 0.0 0.0 0.00 0.00 0.00 94 1015.7
20260506092014 51 257 0.0 0.0 0.00 0.00 0.00 94 1015.7
20260506091513 51 257 0.0 0.0 0.00 0.00 0.00 94 1015.7
20260506091013 51 257 0.0 0.0 0.00 0.00 0.00 94 1015.8
20260506090511 51 257 0.0 0.0 0.00 0.00 0.00 94 1015.8
20260506090015 52 257 0.0 0.0 0.00 0.00 0.00 94 1015.8
20260506085509 52 257 0.0 0.0 0.00 0.00 0.00 94 1016.0
20260506085011 52 257 0.0 0.0 0.00 0.00 0.00 94 1016.0
20260506084509 52 257 0.0 0.0 0.00 0.00 0.00 94 1016.0
20260506084012 52 165 0.0 0.0 0.00 0.00 0.00 94 1016.0
20260506083509 52 165 0.0 0.0 0.00 0.00 0.00 94 1016.0
20260506083008 52 165 0.0 0.0 0.00 0.00 0.00 94 1016.0
20260506082508 52 186 0.0 0.0 0.00 0.00 0.00 94 1016.1
20260506082010 52 186 0.9 0.0 0.00 0.00 0.00 94 1016.1
20260506081509 52 184 0.9 0.0 0.00 0.00 0.00 94 1016.1
20260506081013 52 167 0.9 0.0 0.00 0.00 0.00 94 1016.2
20260506080508 52 184 0.9 0.0 0.00 0.00 0.00 94 1016.2
20260506073505 52 172 0.0 0.0 0.00 0.00 0.00 94 1016.2
20260506073005 52 172 0.9 0.0 0.00 0.00 0.00 94 1016.2
20260506072505 52 172 0.9 0.0 0.00 0.00 0.00 94 1016.1
20260506072005 52 172 0.9 0.0 0.00 0.00 0.00 94 1016.1
20260506071505 52 170 0.9 0.0 0.00 0.00 0.00 94 1016.1
20260506071006 52 174 0.9 0.0 0.00 0.00 0.00 94 1016.0
20260506070503 52 182 0.9 0.0 0.00 0.00 0.00 94 1016.0
20260506062502 52 171 1.7 0.0 0.00 0.00 0.00 94 1015.7
20260506062002 53 360 0.9 0.0 0.00 0.00 0.00 94 1015.7
20260506061501 53 167 0.9 0.0 0.00 0.00 0.00 93 1015.7
20260506061003 53 166 1.7 0.0 0.00 0.00 0.00 93 1015.7
20260506060501 53 169 1.7 0.0 0.00 0.00 0.00 93 1015.7
20260506051058 53 166 1.7 0.0 0.00 0.00 0.00 93 1015.2
20260506050558 53 167 1.7 0.0 0.00 0.00 0.00 93 1015.2
20260506050106 53 161 1.7 0.0 0.00 0.00 0.00 93 1015.2
20260506045056 53 161 0.9 0.0 0.00 0.00 0.00 92 1015.1
20260506044556 53 176 0.9 0.0 0.00 0.00 0.00 92 1015.1
20260506044056 53 175 0.9 0.0 0.00 0.00 0.00 92 1015.0
20260506043556 53 178 0.9 0.0 0.00 0.00 0.00 92 1015.0
20260506043100 53 160 0.9 0.0 0.00 0.00 0.00 92 1015.0
20260506042557 53 160 0.9 0.0 0.00 0.00 0.00 91 1014.7
20260506042057 54 160 0.9 0.0 0.00 0.00 0.00 91 1014.7
20260506041601 54 160 0.9 0.0 0.00 0.00 0.00 91 1014.7
20260506041056 54 160 0.9 0.0 0.00 0.00 0.00 90 1014.7
20260506040555 53 169 1.7 0.0 0.00 0.00 0.00 89 1014.7
20260506040055 53 177 1.7 0.0 0.00 0.00 0.00 88 1014.7
20260506035558 53 166 1.7 0.0 0.00 0.00 0.00 87 1014.5
20260506035056 53 182 1.7 0.0 0.00 0.00 0.00 86 1014.5
20260506034612 53 193 1.7 0.0 0.00 0.00 0.00 86 1014.5
20260506034056 53 179 1.7 0.0 0.00 0.00 0.00 86 1014.3
20260506033554 53 171 0.9 0.0 0.00 0.00 0.00 86 1014.3
20260506033053 53 165 0.9 0.0 0.00 0.00 0.00 88 1014.3
20260506032559 53 165 0.9 0.0 0.00 0.00 0.00 88 1014.2
20260506032058 53 165 0.9 0.0 0.00 0.00 0.00 89 1014.2
20260506031601 54 195 0.0 0.0 0.00 0.00 0.00 89 1014.2
20260506031053 54 195 0.9 0.0 0.00 0.00 0.00 90 1014.0
20260506030554 54 195 0.9 0.0 0.00 0.00 0.00 90 1014.0
20260506030052 54 195 0.9 0.0 0.00 0.00 0.00 89 1014.0
20260506025553 54 205 1.7 0.0 0.00 0.00 0.00 89 1013.6
20260506025051 54 202 1.7 0.0 0.00 0.00 0.00 89 1013.6
20260506024607 54 200 1.7 0.0 0.00 0.00 0.00 88 1013.6
20260506024052 54 183 1.7 0.0 0.00 0.00 0.00 88 1013.6
20260506023552 55 165 1.7 0.0 0.00 0.00 0.00 88 1013.6
20260506023051 55 159 2.6 0.0 0.00 0.00 0.00 87 1013.6
20260506022551 55 136 2.6 0.0 0.00 0.00 0.00 86 1013.3
20260506022051 55 169 2.6 0.0 0.00 0.00 0.00 86 1013.3
20260506021552 55 205 2.6 0.0 0.00 0.00 0.00 85 1013.3
20260506021051 56 205 2.6 0.0 0.00 0.00 0.00 85 1013.3
20260506020552 56 179 2.6 0.0 0.00 0.00 0.00 85 1013.3
20260506020051 56 182 2.6 0.0 0.00 0.00 0.00 85 1013.3
20260506015551 56 182 1.7 0.0 0.00 0.00 0.00 86 1013.1
20260506015050 56 156 2.6 0.0 0.00 0.00 0.00 85 1013.1
20260506014551 56 169 2.6 0.0 0.00 0.00 0.00 85 1013.1
20260506014049 57 217 1.7 0.0 0.00 0.00 0.00 84 1013.0
20260506013553 57 182 1.7 0.0 0.00 0.00 0.00 83 1013.0
20260506013103 57 180 2.6 0.0 0.00 0.00 0.00 82 1013.0
20260506012550 58 221 2.6 0.0 0.00 0.00 0.00 81 1013.0
20260506012050 58 211 2.6 0.0 0.00 0.00 0.00 80 1013.0
20260506011604 59 215 2.6 0.0 0.00 0.00 0.00 79 1013.0
20260506011049 59 171 3.5 0.0 0.00 0.00 0.00 79 1013.0
20260506010549 59 213 2.6 0.0 0.00 0.00 0.00 76 1013.0
20260506010050 59 218 2.6 0.0 0.00 0.00 0.00 77 1013.0
20260506005549 59 187 3.5 0.0 0.00 0.00 0.00 76 1013.0
20260506005051 59 196 3.5 0.0 0.00 0.00 0.00 77 1013.0
20260506004548 58 205 3.5 0.0 0.00 0.00 0.00 78 1013.0
20260506004048 58 235 3.5 0.0 0.00 0.00 0.00 79 1013.1
20260506003548 58 226 3.5 0.0 0.00 0.00 0.00 79 1013.1
20260506003048 58 197 3.5 0.0 0.00 0.00 0.00 80 1013.1
20260506002547 58 255 3.5 0.0 0.00 0.00 0.00 80 1013.0
20260506002049 57 155 3.5 0.0 0.00 0.00 0.00 81 1013.0
20260506001548 57 175 3.5 0.0 0.00 0.00 0.00 82 1013.0
20260506001048 57 188 4.3 0.0 0.00 0.00 0.00 81 1013.0
20260506000548 57 181 4.3 0.0 0.00 0.00 0.00 80 1013.0
20260506000050 57 190 4.3 0.0 0.00 0.00 0.00 78 1013.0
20260505235547 58 175 4.3 0.0 0.00 0.00 0.00 78 1013.1
20260505235047 58 219 3.5 0.0 0.00 0.00 0.00 79 1013.1
20260505234546 58 207 4.3 0.0 0.00 0.00 0.00 79 1013.1
20260505234045 58 210 4.3 0.0 0.00 0.00 0.00 78 1013.0
20260505233545 59 186 4.3 0.0 0.00 0.00 0.00 76 1013.0
20260505233045 59 190 5.2 0.0 0.00 0.00 0.00 76 1013.0
20260505232545 59 186 4.3 0.0 0.00 0.00 0.00 75 1012.9
20260505232049 60 187 3.5 0.0 0.00 0.00 0.00 76 1012.9
20260505231546 60 182 4.3 0.0 0.00 0.00 0.00 77 1012.9
20260505231049 60 124 4.3 0.0 0.00 0.00 0.00 77 1012.9
20260505230545 60 180 3.5 0.0 0.00 0.00 0.00 76 1012.9
20260505230056 60 213 3.5 0.0 0.00 0.00 0.00 75 1012.9
20260505225546 59 237 4.3 0.0 0.00 0.00 0.00 77 1013.0
20260505225044 59 204 4.3 0.0 0.00 0.00 0.00 74 1013.0
20260505224547 60 258 4.3 0.0 0.00 0.00 0.00 72 1013.0
20260505224046 60 169 4.3 0.0 0.00 0.00 0.00 72 1013.2
20260505223543 60 229 4.3 0.0 0.00 0.00 0.00 72 1013.2
20260505223055 60 173 5.2 0.0 0.00 0.00 0.00 71 1013.2
20260505222543 60 242 4.3 0.0 0.00 0.00 0.00 68 1013.3
20260505222047 60 237 4.3 0.0 0.00 0.00 0.00 67 1013.3
20260505221544 60 205 4.3 0.0 0.00 0.00 0.00 67 1013.3
20260505221047 60 181 4.3 0.0 0.00 0.00 0.00 66 1013.4
20260505220542 60 181 4.3 0.0 0.00 0.00 0.00 67 1013.4
20260505220045 60 157 4.3 0.0 0.00 0.00 0.00 66 1013.4
20260505215542 60 211 4.3 0.0 0.00 0.00 0.00 67 1013.4
20260505215042 61 153 3.5 0.0 0.00 0.00 0.00 69 1013.4
20260505214542 61 119 3.5 0.0 0.00 0.00 0.00 70 1013.4
20260505214042 60 173 4.3 0.0 0.00 0.00 0.00 68 1013.5
20260505213545 61 185 4.3 0.0 0.00 0.00 0.00 68 1013.5
20260505213053 61 188 3.5 0.0 0.00 0.00 0.00 67 1013.5
20260505212541 61 212 2.6 0.0 0.00 0.00 0.00 70 1013.6
20260505212041 60 223 3.5 0.0 0.00 0.00 0.00 69 1013.6
20260505211541 60 208 4.3 0.0 0.00 0.00 0.00 70 1013.6
20260505211041 60 155 4.3 0.0 0.00 0.00 0.00 69 1013.5
20260505210540 60 191 4.3 0.0 0.00 0.00 0.00 66 1013.5
20260505210040 61 163 3.5 0.0 0.00 0.00 0.00 67 1013.5
20260505205540 60 200 3.5 0.0 0.00 0.00 0.00 66 1013.5
20260505205039 60 173 3.5 0.0 0.00 0.00 0.00 67 1013.5
20260505204540 60 160 4.3 0.0 0.00 0.00 0.00 67 1013.5
20260505204039 60 186 4.3 0.0 0.00 0.00 0.00 70 1013.5
20260505203539 60 153 4.3 0.0 0.00 0.00 0.00 67 1013.5
20260505203046 60 202 3.5 0.0 0.00 0.00 0.00 68 1013.5
20260505202539 60 192 3.5 0.0 0.00 0.00 0.00 67 1013.5
20260505202039 60 241 4.3 0.0 0.00 0.00 0.00 69 1013.5
20260505201541 60 163 4.3 0.0 0.00 0.00 0.00 67 1013.5
20260505201039 60 207 3.5 0.0 0.00 0.00 0.00 68 1013.5
20260505200539 60 210 4.3 0.0 0.00 0.00 0.00 68 1013.5